Weather History for LIVE - November, 2012

Change the Weather History Date:

Monday, November 26, 2012

  Actual Average Record
Temperature  
Mean Temperature 36 °F -  
Max Temperature 37 °F 36 °F 53 °F (2011)
Min Temperature 35 °F 24 °F 12 °F (2005)
Degree Days  
Heating Degree Days 29    
Moisture  
Dew Point 33 °F    
Average Humidity 88    
Maximum Humidity 100    
Minimum Humidity 81    
Precipitation  
Precipitation 0.00 in - - ()
Sea Level Pressure  
Sea Level Pressure 29.95 in    
Wind  
Wind Speed 6 mph ()    
Max Wind Speed 9 mph    
Max Gust Speed -    
Visibility 6.2 miles    
Events      
Averages and records for this station are not official NWS values.
T = Trace of Precipitation, MM = Missing Value Source: Averaged Metar Reports

Daily Weather History Graph

Daily Weather History Graph

Search for Another Location

Airport or City:

Trip Planner

Search our weather history database for the weather conditions in past years. The results will help you decide how hot, cold, wet, or windy it might be!

Date:

Astronomy

Nov. 26, 2012 Rise Set
Actual Time 7:36 AM CET 4:34 PM CET
Civil Twilight 7:02 AM CET 5:08 PM CET
Nautical Twilight 6:24 AM CET 5:45 PM CET
Astronomical Twilight 5:48 AM CET 6:22 PM CET
Moon 3:20 PM CET (11/26) 5:26 AM CET (11/26)
Length of Visible Light 10h 05m
Length of Day
8h 57m
Waxing Gibbous, 96% of the Moon is Illuminated
Nov 26
Waxing Gibbous
Nov 28
Full
Dec 6
Last Quarter
Dec 13
New
Dec 20
First Quarter

Hourly Weather History & Observations

Time (CET) Temp. Windchill Dew Point Humidity Pressure Visibility Wind Dir Wind Speed Gust Speed Precip Events Conditions
2:55 AM 35.6 °F 29.9 °F 30.2 °F 81% 30.04 in - South 6.9 mph - N/A   Clear
3:55 AM 35.6 °F 29.9 °F 30.2 °F 81% 30.04 in - South 6.9 mph - N/A   Clear
4:55 AM 35.6 °F 28.6 °F 32.0 °F 87% 30.01 in - South 9.2 mph - N/A   Clear
5:55 AM 35.6 °F 29.9 °F 30.2 °F 81% 30.01 in - SW 6.9 mph - N/A   Clear
6:55 AM 35.6 °F 29.2 °F 30.2 °F 81% 30.01 in - SSW 8.1 mph - N/A   Clear
7:55 AM 35.6 °F 31.7 °F 30.2 °F 81% 30.01 in 6.2 mi South 4.6 mph - N/A   Scattered Clouds
8:55 AM 35.6 °F 29.9 °F 32.0 °F 87% 30.01 in 6.2 mi SSW 6.9 mph - N/A   Scattered Clouds
9:55 AM 35.6 °F 29.9 °F 32.0 °F 87% 30.01 in 6.2 mi South 6.9 mph - N/A   Scattered Clouds
10:55 AM 35.6 °F 29.9 °F 33.8 °F 93% 30.01 in 6.2 mi SSW 6.9 mph - N/A   Scattered Clouds
11:55 AM 37.4 °F 31.4 °F 33.8 °F 87% 29.98 in 6.2 mi South 8.1 mph - N/A   Overcast
12:55 PM 37.4 °F 32.1 °F 33.8 °F 87% 29.95 in 6.2 mi South 6.9 mph - N/A   Overcast
1:55 PM 35.6 °F 30.7 °F 33.8 °F 93% 29.95 in 6.2 mi SSW 5.8 mph - N/A   Overcast
2:55 PM 35.6 °F 29.9 °F 35.6 °F 100% 29.92 in 6.2 mi South 6.9 mph - N/A   Overcast
3:55 PM 35.6 °F 30.7 °F 35.6 °F 100% 29.92 in 6.2 mi South 5.8 mph - N/A   Overcast
4:55 PM 37.4 °F 33.8 °F 35.6 °F 93% 29.89 in 6.2 mi SSE 4.6 mph - N/A   Overcast
5:55 PM 35.6 °F 29.2 °F 35.6 °F 100% 29.89 in 6.2 mi SE 8.1 mph - N/A   Overcast
6:55 PM 35.6 °F 29.9 °F 33.8 °F 93% 29.89 in 6.2 mi SSE 6.9 mph - N/A   Overcast
7:55 PM 35.6 °F 29.9 °F 32.0 °F 87% 29.89 in 6.2 mi SE 6.9 mph - N/A   Overcast
8:55 PM 35.6 °F 28.6 °F 32.0 °F 87% 29.86 in 6.2 mi SE 9.2 mph - N/A   Overcast
9:55 PM 35.6 °F 29.9 °F 32.0 °F 87% 29.86 in 6.2 mi SSE 6.9 mph - N/A   Overcast
10:55 PM 35.6 °F 29.9 °F 32.0 °F 87% 29.86 in 6.2 mi SE 6.9 mph - N/A   Overcast
11:55 PM 35.6 °F 29.9 °F 30.2 °F 81% 29.86 in 6.2 mi SE 6.9 mph - N/A   Overcast